Location: Auzers
(45.2667°N, 2.4667°E)
Time: 23:35:44
(UTC+00:00)

Daily predictions for brighter satellites

Satellite Brightness Start Highest point End
(mag) Time Altitude Azimuth Time Altitude Azimuth Time Altitude Azimuth
FengYun 1-2 T 4.4 16:32:18 10° SE 16:37:42 53° ENE 16:43:05 10° N
Cosmos 2369 4.1 16:34:10 10° NNW 16:39:38 42° ENE 16:45:02 10° SE
SJ 16-02 3.8 16:36:25 10° NW 16:40:07 27° W 16:43:47 10° SSW
Cosmos 1812 4.3 16:42:51 10° SE 16:45:18 16° E 16:47:45 10° NE
Meteor PRIRODA 3.5 16:41:47 10° SSE 16:45:24 77° ENE 16:49:02 10° N
NOAA 12 4.1 16:40:52 10° SSE 16:46:11 74° ENE 16:51:30 10° N
SL-16 R/B 3.8 16:44:14 10° N 16:47:26 15° NE 16:50:36 10° ENE
CORIOLIS 4.4 16:44:35 10° SE 16:49:44 49° ENE 16:54:58 10° N
Cosmos 2082 Rocket 2.9 16:45:45 10° S 16:50:53 36° ESE 16:56:01 10° NE
Meteor 1-25 Rocket 4.2 16:50:24 10° N 16:55:59 72° ENE 17:01:36 10° SSE
Cosmos 468 Rocket 4.0 16:50:57 10° SSW 16:56:06 86° WNW 17:01:21 10° NNE
Cosmos 1500 Rocket 3.6 16:52:50 10° N 16:57:18 87° W 17:01:41 10° S
USA 306 4.3 16:56:57 10° NW 17:00:29 25° N 17:03:34 12° NE
CZ-4B DEB 4.3 16:57:15 10° SE 17:02:35 54° ENE 17:07:56 10° N
Cosmos 1898 Rocket 3.6 16:57:25 10° NNW 17:02:42 85° WSW 17:07:54 10° SSE
Cosmos 2278 4.2 16:57:57 10° NNW 17:03:16 38° NE 17:08:31 10° ESE
USA 276 4.4 17:00:39 10° W 17:03:20 27° SW 17:06:01 10° SSE
Cosmos 2221 4.0 16:59:33 10° SW 17:03:34 38° WNW 17:07:37 10° N
Cosmos 1818 4.5 16:59:11 10° NNW 17:03:54 28° NE 17:08:34 10° E
Cosmos 1939 Rocket 2.8 17:00:09 10° SSE 17:04:15 76° ENE 17:08:20 10° N
Cosmos 1602 3.7 17:00:32 10° N 17:04:23 66° E 17:08:14 10° SSE
Sich 1 3.1 17:00:20 10° N 17:04:32 51° ENE 17:08:45 10° SSE
ARGOS 4.0 17:01:42 10° ESE 17:06:09 27° ENE 17:10:36 10° N
Cosmos 1805 Rocket 3.4 17:04:53 10° N 17:09:14 74° E 17:13:33 10° SSE
Cosmos 1833 Rocket 2.9 17:05:01 10° SSW 17:10:38 77° WNW 17:16:18 10° NNE
COSMOS 2406 3.3 17:08:47 10° SSW 17:14:32 90° ESE 17:20:19 10° NNE
NOSS 2-2 (C) 4.3 17:11:30 10° NW 17:16:41 71° NE 17:24:00 10° SE
deb Chang Zheng 4 4.3 17:13:39 10° SE 17:17:24 30° ENE 17:21:11 10° N
USA 307 4.2 17:16:14 10° NW 17:19:48 25° N 17:21:59 17° NE
CZ-2C R/B 4.1 17:16:04 10° S 17:20:46 47° W 17:25:23 10° NNW
Cosmos 1782 2.7 17:18:20 10° S 17:22:19 77° E 17:26:19 10° NNE
USA 267 3.4 17:16:34 12° NE 17:22:38 74° NW 17:29:07 10° WSW
Cosmos 1092 Rocket 4.2 17:17:09 10° N 17:23:32 82° W 17:29:50 10° S
Cosmos 1428 Rocket 4.5 17:18:06 10° N 17:24:15 89° E 17:30:26 10° S
CZ-2C R/B 3.0 17:22:38 10° NNE 17:27:29 38° E 17:32:16 10° SSE
Cosmos 1763 Rocket 4.5 17:22:48 10° SW 17:27:38 45° WNW 17:32:34 10° N
CZ-2D R/B 3.1 17:24:54 10° SSE 17:28:41 66° ENE 17:32:29 10° N
Cosmos 1500 3.0 17:25:21 10° N 17:29:06 84° E 17:32:48 10° S
CZ-4C R/B 3.0 17:23:43 10° NW 17:30:51 65° NE 17:39:12 10° SE
H-2A R/B 1.9 17:26:49 10° SSE 17:31:55 67° ENE 17:36:56 10° N
Meteor 2-16 Rocket 4.5 17:26:21 10° N 17:32:24 59° ENE 17:38:26 10° SSE
CZ-4B R/B 3.2 17:28:08 10° SE 17:33:23 53° ENE 17:38:34 10° N
Cosmos 841 Rocket 3.5 17:29:45 10° SSW 17:34:54 85° WNW 17:40:06 10° NNE
PAYLOAD B 4.2 17:29:35 10° SSE 17:35:11 78° ENE 17:40:48 10° NNW
Cosmos 1937 Rocket 4.3 17:35:46 10° NNW 17:40:58 55° WSW 17:46:08 10° S
SMAP 4.0 17:37:03 10° S 17:41:34 50° W 17:46:07 10° NNW
USA 308 4.1 17:38:53 10° NW 17:42:32 27° N 17:43:39 24° NE
Lacrosse 5 rocket 1.9 17:40:22 10° NW 17:44:01 36° NNE 17:44:49 32° ENE
Cosmos 2142 Rocket 4.4 17:37:55 10° S 17:44:02 74° E 17:50:15 10° NNE
COSMO-SKYMED 1 2.7 17:41:39 17° NNE 17:44:48 51° E 17:49:02 10° S
Cosmos 921 Rocket 3.6 17:41:19 10° SSE 17:45:01 31° E 17:45:22 31° E
Cosmos 1125 Rocket 4.1 17:40:56 10° N 17:45:40 33° ENE 17:47:31 26° E
COSMOS 2455 3.0 17:41:19 10° SW 17:47:20 74° WNW 17:52:28 15° NNE
Cosmos 372 Rocket 4.2 17:43:42 10° NNW 17:48:57 73° WSW 17:54:10 10° SSE
Cosmos 2279 Rocket 3.9 17:43:16 10° S 17:49:27 76° E 17:55:40 10° N
ATLAS 2AS CENTAUR R/B 4.4 17:45:45 10° NW 17:50:45 18° N 17:54:01 14° NNE
Cosmos 1633 Rocket 2.9 17:47:15 10° N 17:51:39 74° E 17:56:01 10° SSE
ISS -3.6 17:48:22 10° WNW 17:51:45 72° SSW 17:53:03 34° SE
Cosmos 2360 Rocket 3.6 17:48:55 10° N 17:52:12 19° NNE 17:52:12 19° NNE
YAOGAN 1 4.5 17:56:50 16° NNE 17:56:50 16° NNE 17:57:49 10° N
Cosmos 44 Rocket 3.4 17:49:16 10° NNW 17:54:05 51° NE 17:56:04 31° ESE
Cosmos 2266 Rocket 4.2 17:48:17 10° N 17:54:27 47° ENE 18:00:35 10° SSE
USA 234 3.4 17:49:26 10° SE 17:55:59 74° SW 18:02:32 10° NW
Meteor 1-10 Rocket 4.4 17:51:18 10° SSE 17:56:49 48° E 18:00:37 19° NNE
SL-24 R/B - RUBIN 2 4.2 17:53:19 10° NW 17:57:42 54° WSW 18:01:54 10° SSE
Meteor 1-11 Rocket 4.0 17:52:52 10° N 17:58:11 41° ENE 18:03:34 10° SE
Cosmos 1666 2.6 17:54:39 10° N 17:58:23 81° W 18:02:05 10° S
Cosmos 1151 Rocket 3.1 17:56:05 10° SSW 18:00:24 78° W 18:04:41 11° N
CZ-4 R/B 4.3 18:02:14 10° SSE 18:06:20 77° ENE 18:10:30 10° N
USA 305 3.9 18:04:57 10° NW 18:08:40 32° NNE 18:08:40 32° NNE
SKYMED 3 4.5 18:06:03 21° NNE 18:08:58 88° WNW 18:13:18 10° SSW
Cosmos 1900 4.2 18:05:21 10° SSW 18:10:13 81° ESE 18:11:48 43° NE
X-37B 3.2 18:09:42 10° S 18:10:00 11° S 18:10:00 11° S
Okean O Rocket 1.6 18:07:44 10° SSE 18:12:11 88° WSW 18:16:41 10° NNW
Feng Yun 1-1 Rocket 4.3 18:07:34 10° SSE 18:13:25 63° ENE 18:19:12 10° N
Cosmos 2322 Rocket 2.6 18:08:44 10° NNW 18:13:54 40° NE 18:13:54 40° NE
Meteor 2-15 4.3 18:08:05 10° S 18:14:10 74° E 18:20:15 10° NNE
Landsat 5 3.2 18:16:56 69° NE 18:17:22 80° ESE 18:21:20 10° S
Cosmos 1980 Rocket 3.3 18:13:56 10° NW 18:19:17 44° WSW 18:24:35 10° S
Cosmos 1812 4.2 18:17:08 10° SW 18:20:43 37° WNW 18:23:53 13° N
Cosmos 1328 Rocket 3.9 18:16:42 10° SSW 18:21:07 67° W 18:24:02 21° N
Cosmos 1470 Rocket 3.5 18:17:17 10° N 18:21:46 89° E 18:26:15 10° S
Spot 2 4.4 18:20:29 35° SE 18:22:31 61° ENE 18:27:34 10° N
APEX 4.4 18:19:49 10° SSW 18:22:09 30° S 18:22:09 30° S
SL-16 R/B 2.0 18:26:57 10° NNW 18:32:38 69° ENE 18:33:21 62° ESE
SKYMED 2 4.4 18:30:16 21° N 18:32:53 49° WNW 18:37:03 10° SW
Cosmos 2082 Rocket 3.4 18:29:39 10° WSW 18:34:55 38° NW 18:38:46 17° N
Cosmos 1655 Rocket 4.0 18:29:35 10° N 18:36:01 84° W 18:42:22 10° S
Cosmos 2298 Rocket 4.0 18:30:42 10° NNW 18:36:04 86° WSW 18:38:49 30° SSE
ATLAS CENTAUR R/B 3.6 18:30:16 10° W 18:36:44 30° NW 18:37:45 27° N
USA 306 4.4 18:37:07 10° NW 18:39:34 29° NNW 18:39:34 29° NNW
DMSP B5D2-2 4.3 18:42:38 56° SSE 18:42:38 56° SSE 18:46:51 10° S
CZ-2C R/B 3.6 18:40:15 10° SSW 18:42:01 16° S 18:42:01 16° S
Cosmos 2333 Rocket 4.1 18:41:10 10° N 18:42:44 16° N 18:42:44 16° N
ARGOS 4.1 18:40:57 10° S 18:46:09 47° W 18:51:23 10° NNW
Cosmos 1818 3.9 18:42:28 10° NW 18:47:53 63° WSW 18:49:43 40° S
GEOS 3 Rocket 3.8 18:54:52 61° NNW 18:54:52 61° NNW 18:59:10 10° NW
Meteor 1-27 Rocket 3.9 18:57:05 10° SSW 19:01:42 62° SSW 19:01:42 62° SSW
USA 267 4.1 19:03:55 34° N 19:05:06 37° NNW 19:10:58 10° WNW
Cosmos 2219 Rocket 4.4 19:01:37 10° N 19:02:19 13° N 19:02:19 13° N
CZ-2C R/B 4.3 19:03:19 11° N 19:07:39 30° WNW 19:12:05 10° SW
CZ-4C R/B 4.3 19:12:35 10° NW 19:19:23 37° WSW 19:26:59 10° S
Lacrosse 5 rocket 4.0 19:19:22 10° WNW 19:20:27 17° WNW 19:20:27 17° WNW
Cosmos 2360 Rocket 4.1 19:32:04 10° NNW 19:33:59 22° NNW 19:33:59 22° NNW
ATLAS 2AS CENTAUR R/B 4.4 19:38:04 10° NNW 19:41:27 22° N 19:41:27 22° N
Cosmos 2322 Rocket 4.1 19:52:57 10° NW 19:55:46 25° WNW 19:55:46 25° WNW
